633  
ASHW40 PHFO 190332  
RWRHI  
 
WEATHER ROUNDUP FOR HAWAII  
NATIONAL WEATHER SERVICE HONOLULU HI  
500 PM HST THU JAN 18 2018  
 
THIS IS AN AUTOMATED REPORT THAT HAS NOT BEEN QUALITY CONTROLLED.  
 
NOTE..."FAIR" INDICATES FEW OR NO CLOUDS BELOW 12,000 FEET WITH NO  
SIGNIFICANT WEATHER AND/OR S TO VISIBILITY
.  
 
* - THESE SITES REPORT LIMITED FIELDS  
# - BUOY DATA PROVIDED BY PACIFIC ISLANDS OCEAN OBSERVING SYSTEM.  
 
HIZ001>004-190400-  
KAUAI-NIIHAU-  
 
CITY SKY/WX TMP DP RH WIND PRES REMARKS
 
LIHUE APT MOSUNNY 76 68 76 NE17 30.13R  
PORT ALLEN* N/A 77 N/A N/A E28G37 N/A  
POIPU* N/A 77 N/A N/A NE12G25 N/A  
PRINCEVILLE* N/A 73 N/A N/A E12G21 N/A  
KOKOLE POINT* NOT AVBL  
MOLOAA DAIRY* N/A 73 66 78 E9G18 N/A  
WAIMEA HTS* NOT AVBL  
PUU OPAE* NOT AVBL  
PUU LUA* NOT AVBL  
MAKAHA RIDGE* N/A 73 57 56 NE5G20 N/A  

 
 
HIZ005>011-190400-  
OAHU-  
 
CITY SKY/WX TMP DP RH WIND PRES REMARKS
 
HONOLULU MOSUNNY 80 61 52 NE24G32 30.07R  
KALAELOA MOSUNNY 79 63 57 E16G25 30.07R  
KANEOHE MCB PTSUNNY 77 65 66 E16G31 30.09R  
WHEELER FIELD PTSUNNY 73 61 64 E12G23 30.12R  
BELLOWS* N/A N/A N/A N/A NE25G32 N/A  
KAHUKU* N/A N/A N/A N/A NE21G35 N/A  
WHEELER* NOT AVBL  
WAIANAE HARBOR NOT AVBL  
DILLINGHAM* NOT AVBL  
KAHUKU TRN* N/A 79 70 73 W18G41 N/A  
KAWAILOA* N/A N/A N/A N/A E7G26 N/A  
KII* N/A 75 68 78 E30G39 N/A  
MAKUA RANGE* N/A 84 61 45 W10G23 N/A  
OAHU FOREST NW NOT AVBL  
SCHOFIELD BRK* N/A 77 64 65 MISG N/A  
SCHOFIELD S* NOT AVBL  
WAIANAE VLY* NOT AVBL  
KUAOKALA* NOT AVBL  
HONOULIUULI* NOT AVBL  
MOKUOLOE IS* NOT AVBL  
PALEHUA* NOT AVBL  
WAIAWA PHB* NOT AVBL  

 
 
HIZ012>013-190400-  
MOLOKAI-  
 
CITY SKY/WX TMP DP RH WIND PRES REMARKS
 
MOLOKAI AIRPT MOSUNNY 70 32 24 NE22 30.09R  
KALAUPAPA NOT AVBL  
MAKAPULAPAI* N/A 75 66 73 E30G41 N/A  
MOLOKAI 1* NOT AVBL  
PUU ALII* N/A 54 53 98 VRB3G20 N/A  

 
 
HIZ016-190400-  
KAHOOLAWE-  
 
CITY SKY/WX TMP DP RH WIND PRES REMARKS
 
KAHOOLAWE* NOT AVBL  
HAKIOAWA* N/A 71 64 78 MISG 30.45R  
HONOKANAIA* NOT AVBL  
KANELOA* N/A 75 63 64 E32G56 30.09R  
KEALIALALO* NOT AVBL  
LUA MAKIKA* NOT AVBL  

 
 
HIZ014>015-190400-  
LANAI-  
 
CITY SKY/WX TMP DP RH WIND PRES REMARKS
 
LANAI CITY FAIR 72 63 73 NE17 30.09R  
LANAI 1* NOT AVBL  

 
 
HIZ017>028-190400-  
MAUI-  
 
CITY SKY/WX TMP DP RH WIND PRES REMARKS
 
KAHULUI MOSUNNY 76 67 73 NE23G41 30.03R  
KAPALUA-W MAUI MOSUNNY 75 66 73 NE23G40 30.06S  
HANA AIRPORT CLOUDY 72 32 23 E5 30.17R HAZE  
HANA* N/A 73 N/A N/A E10G20 N/A  
HALEAKALA SUMM N/A N/A N/A N/A MISG N/A  
MAALAEA BAY* N/A 75 N/A N/A VRB25G39 N/A  
HALEAKALA* NOT AVBL  
KAUPO GAP* NOT AVBL  
KULA 1* N/A N/A N/A N/A N8G21 N/A  

 
 
HIZ023>026-190400-  
BIG ISLAND OF HAWAII COAST AND LOWER SLOPES-  
 
CITY SKY/WX TMP DP RH WIND PRES REMARKS
 
KAILUA KONA MOSUNNY 79 60 52 S10 30.00R  
HILO LGT RAIN 72 67 84 NW3 30.15R  
HONOKAA* N/A 68 N/A N/A VRB1 N/A  
KAWAIHAE MWT* N/A 84 N/A N/A E31G46 N/A  
KAWAIHAE* N/A 84 N/A N/A E23G43 29.93S  
SOUTH POINT* N/A 73 N/A N/A N29G41 N/A  
UPOLU AIRPORT* NOT AVBL  
KAMUELA* MOCLDY 64 61 88 NE20G38 30.12F  
HAKALAU* N/A 56 51 84 S6G12 N/A  
KALOKO-HONOKO* N/A N/A N/A N/A S5G12 N/A  
PALI 2* N/A 66 57 72 SW25G37 N/A  
KEALAKOMO* N/A 79 64 61 N22G32 N/A  
KAUPULEHU* NOT AVBL  
KAPAPALA* N/A 77 57 50 NE13G31 N/A  
LOWER KAHUKU* N/A 64 59 82 N3G16 N/A  
PUHE CS* N/A 84 55 37 NE21G39 N/A  
PUHO CS* N/A 81 61 49 W3 N/A  
PTA KEAMUKU* N/A 66 57 72 NE22G35 N/A  
WAIKOLOA* NOT AVBL  

 
 
HIZ027>028-190400-  
BIG ISLAND OF HAWAII INTERIOR AND SUMMMITS-  
 
CITY SKY/WX TMP DP RH WIND PRES REMARKS
 
BRADSHAW FIELD SUNNY 66 5 9 SE16G22 30.30R  
MK VISITOR CEN N/A 54 7 15 NE15 N/A  
MAUNA KEA* N/A 32 -8 18 E17 N/A WCI 21  
MAUNA LOA* N/A 48 -4 11 MISG N/A  
MAUNA LOA 1* NOT AVBL  
PTA KIPUKA* N/A 66 48 52 W15G35 N/A  
PTA RANGE 17* N/A 59 48 67 NW26G38 N/A  
PTA WEST* N/A 70 50 49 E10G23 N/A  
NENE CABIN* N/A 57 50 77 E10G21 N/A  
AHUMOA* NOT AVBL  
PTA PORTABLE* NOT AVBL  
PUU MALI* N/A 66 12 12 SE16G33 N/A  

 
 
HIC003-190400-  
NORTHWEST ISLANDS-  
 
CITY SKY/WX TMP DP RH WIND PRES REMARKS
 
MIDWAY ISLAND CLOUDY 70 61 73 NE10 29.99R  
MIDWAY NOS* N/A 70 N/A N/A MISG 29.96S  
FRENCH FRIGATE NOT AVBL  

 
 
PHZ110>124-180-190400-  
BUOY REPORTS  
 
STATION/POSITION TIME TEMP WIND PRES WAVE SWELL
 
AIR SEA DIR/SP/G HT/PER HT/DIR  
(UTC) (F) (DEG/KT/KT) (MB) (FT/S) (FT/D)  
BUOY 51001 0310 76 76 120/ 16/ 19 1015.7  
BUOY 51101 0250 73 74 100/ 23/ 27 1020.1R 11/ 8  
BUOY 51100 NOT AVBL  
BUOY 51002 0310 78 78 70/ 25/ 31 1015.2  
BUOY 51003 0250 76 77 70/ 21/ 25 1015.8R 11/10 8/ 80  
BUOY 51004 0310 76 77 60/ 27/ 33 1016.5  
WAIMEA BAY# 0302 74 N/A 10/13 7/330  
MOKAPU POINT# 0304 76 N/A 12/ 9 5  
LANAI# NOT AVBL  
BARBERS PT 2# NOT AVBL  
PAUWELA# 0300 76 N/A 12/ 8 5/340  
HILO# 0257 76 N/A 12/ 8 5/340  
KANEOHE BAY# NOT AVBL  
KANEOHE BAY 2# NOT AVBL  
HANALEI# 0252 75 N/A 12/ 9 5/ 30  
KAHULUI HARBOR 0300 74 75 40/ 25/ 32 1017.7  
HONOLULU HARBOR 0300 76 75 60/ 11/ 21 1018.0  
PEARL HARBOR# 0300 76 N/A 5/ 6 2/150  
KILO NALU NOT AVBL  
HILO HARBOR 0300 71 76 60/ 5/ 10 1020.5  
MOKUOLOE 0236 75 76 90/ 18/ 23 1019.5R  
NAWILIWILI 0300 74 60/ 15/ 19 1019.8  
WHOTS BUOY NOT AVBL  
BUOY 51028 NOT AVBL  

 
   
.....................KEY.....................................
 
 
SKY/WX - SKY CONDITIONS/PRESENT WEATHER  
TMP - TEMPERATURE IN FAHRENHEIT  
DWPT - DEWPOINT IN FAHRENHEIT  
RH - RELATIVE HUMIDITY IN PERCENT  
WIND - DIRECTION AND SPEED /MPH FOR ISLANDS...KTS FOR BUOYS/  
PRES - MEAN SEA LEVEL PRESSURE IN INCHES OF HG  
VSB - VISIBILITY IN MILES  
HX - HEAT INDEX  
WCI - WIND CHILL INDEX  
VRB - VARIABLE WIND DIRECTION  
N/A - NOT AVAILABLE  
 
 
CLICK HERE TO GO TO PREVIOUS BULLETINS.

The Nexlab HI Page Main Text Page